Weather in Peschanoye

Russia / Republic of Karelia     62°09′38″N   35°47′33″E
temp.,
°C
wind,
m/s
gust,
m/s
humid.,
%
clouds,
%
prec.,
mm/h
press.,
hPa
HPBL,
m
4 august, wed
wed400:00+14sw10137895 0.3 10001166
03:00+13wsw101278100 0.4 10021154
06:00+13wsw9127399 0.4 10041271
09:00+15wsw1016620 0.4 10051490
12:00+17wsw913545 0.0 10071611
15:00+18wsw8124866 0.0 10081011
18:00+17nw710564 0.0 1011790
21:00+13nw26630 0.0 1014392
5 august, thu
thu500:00+13sw34605 0.0 1015256
03:00+14sw366644 0.0 1015329
06:00+14nw236564 0.7 1016183
09:00+15n105994 1.1 1017351
12:00+16nnw115287 0.1 1018420
15:00+16wnw115386 0.1 1018378
18:00+16wnw246067 0.0 1019223
21:00+15e226578 0.0 101923
6 august, fri
fri600:00+14e226497 0.0 101978
03:00+14e2466100 0.0 1020137
06:00+13e356981 0.0 1020165
09:00+16ene345813 0.0 1021285
12:00+19ene354654 0.0 1020757
15:00+19ene344488 0.0 1020707
18:00+18ene485096 0.0 1020376
21:00+15ene48635 0.0 1021177
7 august, sat
sat700:00+13ene48685 0.0 1022196
03:00+12ene49735 0.0 1023215
06:00+11ene510720 0.0 1023329
09:00+16e69531 0.0 1024715
12:00+18ene57455 0.0 1023645
15:00+19ene58435 0.0 1023696
18:00+19e484680 0.0 1022652
21:00+16ene476067 0.0 1023124
8 august, sun
sun800:00+15e512635 0.0 1024379
03:00+13e61267100 0.0 1024333
06:00+13e6146799 0.0 1024443
09:00+16e61258100 0.0 1023698
12:00+18e61250100 0.0 1022569
15:00+19ese61149100 0.0 1022532
18:00+19e61150100 0.0 1021485
21:00+17e51154100 0.0 1021315